Laredo, TX

11:20 AM CST on February 27, 2017 (GMT -0600)
Laredo International

Weather History for KLRD - March, 2013

Change the Weather History Date:

Sunday, March 10, 2013

  Actual Average Record
Temperature  
Mean Temperature 70 °F 67 °F  
Max Temperature 78 °F 78 °F 99 °F (2006)
Min Temperature 61 °F 56 °F 29 °F (1932)
Degree Days  
Heating Degree Days 0 3  
Month to date heating degree days 20 35  
Since 1 July heating degree days 496 879  
Cooling Degree Days 5 5  
Month to date cooling degree days 44 41  
Year to date cooling degree days 198 126  
Growing Degree Days 19 (Base 50)    
Moisture  
Dew Point 39 °F    
Average Humidity 38    
Maximum Humidity 81    
Minimum Humidity 15    
Precipitation  
Precipitation 0.00 in 0.03 in 1.79 in (2016)
Month to date precipitation 0.00 0.40  
Year to date precipitation 0.75 2.24  
Sea Level Pressure  
Sea Level Pressure 29.88 in    
Wind  
Wind Speed 17 mph (North)    
Max Wind Speed 37 mph    
Max Gust Speed 43 mph    
Visibility 10 miles    
Events      
T = Trace of Precipitation, MM = Missing Value Source: NWS Daily Summary

Daily Weather History Graph

Daily Weather History Graph

Search for Another Location

Airport or City:

Trip Planner

Search our weather history database for the weather conditions in past years. The results will help you decide how hot, cold, wet, or windy it might be!

Date:

Astronomy

Mar. 10, 2013 Rise Set
Actual Time 7:52 AM CDT 7:43 PM CDT
Civil Twilight 7:29 AM CDT 8:07 PM CDT
Nautical Twilight 7:02 AM CDT 8:34 PM CDT
Astronomical Twilight 6:34 AM CDT 9:01 PM CDT
Moon 6:50 AM CDT (3/10) 6:54 PM CDT (3/10)
Length of Visible Light 12h 38m
Length of Day
11h 51m
Waning Crescent, 2% of the Moon is Illuminated
Mar 10
Waning Crescent
Mar 11
New
Mar 19
First Quarter
Mar 27
Full
Apr 2
Last Quarter

Hourly Weather History & Observations

Time (CDT) Temp. Dew Point Humidity Pressure Visibility Wind Dir Wind Speed Gust Speed Precip Events Conditions
12:56 AM 70.9 °F 63.9 °F 78% 29.58 in 9.0 mi South 19.6 mph - N/A   Clear
1:56 AM 70.0 °F 63.9 °F 81% 29.61 in 10.0 mi South 12.7 mph - N/A   Clear
3:25 AM 71.6 °F 64.4 °F 78% 29.70 in 10.0 mi Variable 3.5 mph - N/A   Mostly Cloudy
3:56 AM 72.0 °F 63.9 °F 76% 29.69 in 10.0 mi NW 10.4 mph - N/A   Overcast
4:26 AM 71.6 °F 64.4 °F 78% 29.73 in 10.0 mi Calm Calm - N/A   Mostly Cloudy
4:56 AM 72.0 °F 63.0 °F 73% 29.71 in 9.0 mi NNW 27.6 mph 34.5 mph N/A   Mostly Cloudy
5:56 AM 68.0 °F 46.9 °F 47% 29.75 in 10.0 mi North 23.0 mph - N/A   Mostly Cloudy
6:56 AM 66.2 °F 46.4 °F 49% 29.84 in 10.0 mi North 18.4 mph - N/A   Partly Cloudy
7:56 AM 63.9 °F 46.9 °F 54% 29.85 in 10.0 mi NNW 11.5 mph - N/A   Clear
8:56 AM 64.9 °F 46.9 °F 52% 29.88 in 10.0 mi NNW 12.7 mph - N/A   Clear
9:56 AM 68.9 °F 32.0 °F 25% 29.91 in 10.0 mi NNW 18.4 mph 28.8 mph N/A   Clear
10:56 AM 72.0 °F 30.0 °F 21% 29.94 in 10.0 mi North 17.3 mph 28.8 mph N/A   Clear
11:56 AM 73.9 °F 28.0 °F 18% 29.94 in 10.0 mi North 19.6 mph 25.3 mph N/A   Clear
12:56 PM 75.9 °F 27.1 °F 16% 29.94 in 10.0 mi North 19.6 mph 25.3 mph N/A   Clear
1:56 PM 77.0 °F 27.1 °F 16% 29.92 in - NNW 23.0 mph 27.6 mph N/A   Unknown
2:56 PM 77.0 °F 25.2 °F 15% 29.91 in 10.0 mi North 17.3 mph 28.8 mph N/A   Clear
3:56 PM 77.9 °F 25.2 °F 14% 29.89 in 10.0 mi NNW 16.1 mph 29.9 mph N/A   Clear
4:56 PM 75.9 °F 24.1 °F 15% 29.88 in 10.0 mi North 19.6 mph 28.8 mph N/A   Clear
5:56 PM 74.8 °F 25.2 °F 16% 29.90 in 10.0 mi North 20.7 mph 25.3 mph N/A   Clear
6:56 PM 72.9 °F 25.2 °F 17% 29.91 in 10.0 mi North 19.6 mph 25.3 mph N/A   Clear
7:56 PM 70.0 °F 25.2 °F 19% 29.96 in 10.0 mi North 15.0 mph - N/A   Clear
8:56 PM 66.9 °F 26.1 °F 21% 30.00 in 10.0 mi NNW 9.2 mph - N/A   Clear
9:56 PM 64.9 °F 26.1 °F 23% 30.05 in 10.0 mi North 8.1 mph - N/A   Clear
10:56 PM 63.0 °F 27.1 °F 26% 30.09 in 10.0 mi NNE 12.7 mph - N/A   Clear
11:56 PM 61.9 °F 29.1 °F 29% 30.10 in 10.0 mi NNE 17.3 mph - N/A   Clear
12:56 AM 61.0 °F 28.0 °F 29% 30.12 in 10.0 mi NNE 12.7 mph - N/A   Clear